Regional Weather Roundup
Issued by NWS Goodland, KS

Home | Current Version | Previous Version | Graphics & Text | Print | Product List | Glossary On
Versions: 1 2 3 4 5 6 7 8 9 10 11 12 13 14 15 16 17 18 19 20 21 22 23 24 25 26 27 28 29 30 31 32 33 34 35 36 37 38 39 40 41 42 43 44 45 46 47 48 49 50
000
ASUS43 KGLD 051708
RWRGLD

GOODLAND FORECAST AREA HOURLY WEATHER ROUNDUP
NATIONAL WEATHER SERVICE GOODLAND KS
1100 AM MDT THU MAY 05 2016

...OFFICIAL OBSERVATIONS...

CITY           SKY/WX    TMP DP  RH WIND       PRES   REMARKS
GOODLAND KS    SUNNY     76  40  27 S16       30.10S
HILL CITY KS   SUNNY     76  47  35 S10       30.11F
IMPERIAL NEB   CLOUDY    74  43  32 S14       30.08F
MCCOOK NEB     SUNNY     74  54  49 S9        30.08F
AKRON CO       CLOUDY    74  44  34 SW10      30.11S
BURLINGTON CO  SUNNY     74  38  27 S18       30.12F
LIMON CO       SUNNY     72  36  26 S10       30.16F
$$

...UNOFFICIAL OBSERVATIONS...

CITY           SKY/WX    TMP DP  RH WIND       PRES   REMARKS
COLBY KS       SUNNY     72  55  56 S10G17    30.12F
LENORA KS        N/A     74  32  21 MISG        N/A
NORTON KS      SUNNY     73  41  31 SE5       30.10S
SHARON SPRINGS   N/A     74  47  37 S17         N/A
KIT CARSON CO    N/A     72  41  32 MISG        N/A
YUMA CO          N/A     76  40  27 SW14        N/A
$$




USA.gov is the U.S. government's official web portal to all federal, state and local government web resources and services.